NOAA NWS Hourly Roundups by Site

Regional Weather Roundup for Green Bay, WI

To Select Another Site Choose from List

Select Site:  

183
ASUS43 KGRB 180110
RWRGRB

NORTH-CENTRAL AND NORTHEAST WISCONSIN REGIONAL WEATHER ROUNDUP
NATIONAL WEATHER SERVICE GREEN BAY WI
800 PM CDT FRI MAY 17 2024

WIZ005-009-010>012-018-019-180200-
NORTH CENTRAL WISCONSIN

CITY           SKY/WX    TMP DP  RH WIND       PRES   REMARKS
IRONWOOD       RAIN      68  56  65 SW12      29.69R
MANITOWISH WTR PTCLDY    69  51  52 S8        29.70S
ARBOR VITAE    CLEAR     70  50  48 S7        29.71S
EAGLE RIVER    CLEAR     70  43  37 S3        29.72S
LAND O LAKES   CLEAR     70  43  37 S7        29.74S
RHINELANDER    CLEAR     71  46  40 S6        29.73F
PHILLIPS       CLEAR     72  52  48 S8        29.68S
ANTIGO         CLEAR     65  52  61 SE9       29.76S
TOMAHAWK       CLEAR     71  49  45 S3        29.72S
MERRILL        CLEAR     72  47  41 S5        29.72S
$$

WIZ013-073-180200-
NORTHEAST WISCONSIN

CITY           SKY/WX    TMP DP  RH WIND       PRES   REMARKS
IRON MOUNTAIN  CLEAR     70  51  51 SE10      29.73S
MARINETTE      CLEAR     63  51  65 S6        29.78S
OCONTO         CLEAR     64  51  64 SE7       29.77S
$$

WIZ017-030-035>037-045-180200-
CENTRAL WISCONSIN

CITY           SKY/WX    TMP DP  RH WIND       PRES   REMARKS
MEDFORD        CLEAR     69  48  47 SE6       29.71S
WAUSAU         CLEAR     73  46  38 SE9       29.71S
MOSINEE        CLEAR     72  48  43 S6        29.72F
MARSHFIELD     CLEAR     69  54  58 S7        29.71S
WISC RAPIDS    CLEAR     73  49  42 S6        29.73S
STEVENS POINT  CLEAR     75  49  40 S3        29.74S
WAUPACA        CLEAR     73  52  48 SE10G17   29.75R
SHAWANO        CLEAR     71  47  41 SE6       29.75S
CLINTONVILLE   CLEAR     71  53  53 SE6       29.76S
WAUTOMA        CLEAR     74  48  39 SE6       29.74S
$$

WIZ038-039-048-051-180200-
FOX VALLEY

CITY           SKY/WX    TMP DP  RH WIND       PRES   REMARKS
NWS GREEN BAY  CLEAR     66  51  58 SE8       29.77S
APPLETON       PTCLDY    70  54  56 SE12      29.77S
OSHKOSH        CLEAR     69  54  58 SE13      29.76S
FOND DU LAC    CLEAR     67  53  61 SE13      29.77R
$$

WIZ022-050-052-180200-
EAST CENTRAL WISCONSIN

CITY           SKY/WX    TMP DP  RH WIND       PRES   REMARKS
EPHRAIM        CLEAR     58  48  68 SE3       29.78F
WASHINGTON ISL CLEAR     56  54  95 CALM      29.78S
STURGEON BAY   CLEAR     61  50  67 S9        29.79F
MANITOWOC      CLEAR     58  50  75 E3        29.80S
SHEBOYGAN      CLEAR     62  51  67 E3        29.79S
$$

LMZ563-521-522-541>543-180200-
LAKESHORE

STATION/POSITION TIME  TEMP    WIND        PRES    VSBY  WAVE
                       AIR SEA DIR/SP/G                  HT/PER
                 (UTC) (F)     (DEG/KT/KT) (MB)    (MI)  (FT/S)
SHEBOYGAN LKSHOR 0100   55     190/  4/  4 1008.7F
KEWAUNEE LKSHORE 0024   59     160/  3/  4 1008.0
NORTHPORT PIER   0000   60     140/  5/ 10 1009.1
N MID LAKE BUOY  0050   52 48  140/  6/  6 1009.2F         1
CHAMBERS ISLAND  0040   63      90/  5/ 11   N/A
GREEN BAY WEST   0024   70     130/  6/  9 1006.8
MENOMINEE LKSHOR 0024   61 61  150/ 12/ 14 1006.6
$$



 

View Past Reports for Green Bay, WI.

Products Courtesy of NOAA-NWS
NWS Information Parsing Script by Ken True at Saratoga Weather - Script by SE Lincoln Weather.